CZ-6A DEB

Satellite information

Favourite Embed

Satellite Type and Status

DEBRISIN ORBIT

Key statistics

Satellite CZ-6A DEB at a glance.

Uptime

439

Days in orbit

Revolutions

≈ 14.5

Per day

Orbit

LEO

Low Earth Orbit

Inclination

88.6

Latest

Satellite identification and parameters

Extended collection of information and parameters for CZ-6A DEB.

Object identification

Identified? True

Debris? True

Object name: CZ-6A DEB

International designator: 2024-140VJ

Object number (NORAD): 61345

Object ID (CCSDS): 61345

Country: PEOPLES REPUBLIC OF CHINA (PRC)

Current information (Y/N): Y

RCS size: SMALL

Orbital parameters

Period: 99.649 minutes

Inclination: 88.6344 deg

SMA: 7119.95 km

Apoapsis: 820.766 km

Periapsis: 662.863 km

RAAN: 280.8624 deg

Eccentricy: 0.0110888

Argument of periapsis: 318.349 deg

Mean anomaly: 40.9307 deg

Mean motion: 14.45064959 rev/day

Mean motion (dot): 0.00004879 rev/day2

B* drag term: 0.001291 1/REarth

Two-line elements (TLE)

Creation date: Oct. 18, 2025, 8:56 a.m.

Reference frame: TEME

Reference center: EARTH

Epoch: Oct. 17, 2025, 9:52 p.m. UTC

TLE line 0: 0 CZ-6A DEB

TLE line 1: 1 61345U 24140VJ 25290.91123742 .00004879 00000-0 12910-2 0 9990

TLE line 2: 2 61345 88.6344 280.8624 0110888 318.3490 40.9307 14.45064959 59125

Live tracking on map

Real-time ground track for satellite CZ-6A DEB.

In-orbit conjunctions

A list of the most updated potential collisions computed for object CZ-6A DEB.

Target Orbit TCA Probability of collision Miss distance Type
NOAA 7 DEB SSO 2025-07-07 22:54:10 0.00088454 92.0 (m) DEBRIS
SL-8 DEB LEO 2025-04-16 08:06:49 0.002025721 18.0 (m) DEBRIS
COSMOS 1570 LEO 2025-03-11 18:42:57 0.0002197535 226.0 (m) PAYLOAD
FENGYUN 1C DEB SSO 2025-02-18 04:26:36 0.000262654 451.0 (m) DEBRIS
COSMOS 2251 DEB LEO 2025-02-04 05:01:46 0.0003248776 189.0 (m) DEBRIS

Associated space launch

18 Low Earth Orbit communication satellites with Ku, Q and V band payloads for the G60 constellation operated by Shanghai Spacecom Satellite Technology (SSST) with funding backed by the Shanghai local government. Initial constellation will consist of 1296 satellites by 2027 with long term plans to expand it to 12000 satellites.

CZ-6A DEB was lifted into orbit during the mission ‘Long March 6A | G60 Polar Group 01’, on board a Long March 6A space rocket.

The launch took place on Aug. 6, 2024, 6:42 a.m. from Launch Complex 9A.

For more information about the launch, click the button.

Launch to space Long March 6A | G60 Polar Group 01
Long March 6A | G60 Polar Group 01

Agency: N/A

Status: Launch Successful

Launch date: Aug. 6, 2024, 6:42 a.m. UTC

Rocket: Long March 6A

Launch pad: Launch Complex 9A

Location: Taiyuan Satellite Launch Center, People's Republic of China

...

Latest news about this satellite

News about space launch
Brightness of first Chinese broadband constellation satellites alarms astronomers

The first satellites of a Chinese broadband constellation are significantly brighter than those of Western systems, posing a new challenge for astronomers.

News about space launch
Chinese rocket stage breaks up into cloud of more than 700 pieces of space debris

HELSINKI — A Chinese Long March 6A rocket’s upper stage has fragmented into a cloud of over 700 pieces of space debris, adding to concerns about long-term orbital safety. China […]

News about space launch
China's Thousand Sails Megaconstellation Kicks Off with Dangerous Debris Field

China's Thousand Sails Megaconstellation Kicks Off with Dangerous Debris Field


Newsletter sign-up

Weekly statistics, charts and insights to help you stay on top of the space industry.